This is the latest recevied weather packets stored in our database for station/object EA7URS-13. If no packets are shown the sender has not sent any weather packets the latest 10 day(s).
| Time | Temp. | Humidity | Pressure | Rain* | Wind** | Luminosity | Snow |
|---|---|---|---|---|---|---|---|
| 1788026009 | 34.44° C | 18% | 1008.8 hPa | 0 mm | - | 40 W/m² | - |
| 1788025708 | 35° C | 18% | 1008.7 hPa | 0 mm | - | 39 W/m² | - |
| 1788025407 | 35° C | 18% | 1008.7 hPa | 0 mm | - | 39 W/m² | - |
| 1788025106 | 35° C | 18% | 1008.8 hPa | 0 mm | - | 46 W/m² | - |
| 1788024805 | 35° C | 18% | 1008.8 hPa | 0 mm | - | 46 W/m² | - |
| 1788024504 | 34.44° C | 19% | 1008.8 hPa | 0 mm | - | 80 W/m² | - |
| 1788024207 | 34.44° C | 19% | 1008.8 hPa | 0 mm | - | 80 W/m² | - |
| 1788023902 | 34.44° C | 18% | 1008.9 hPa | 0 mm | - | 99 W/m² | - |
| 1788023601 | 34.44° C | 18% | 1008.9 hPa | 0 mm | - | 99 W/m² | - |
| 1788023299 | 35° C | 18% | 1008.8 hPa | 0 mm | - | 122 W/m² | - |
| 1788022998 | 35° C | 18% | 1008.8 hPa | 0 mm | - | 122 W/m² | - |
| 1788022697 | 34.44° C | 17% | 1008.9 hPa | 0 mm | - | 164 W/m² | - |
| 1788022396 | 34.44° C | 17% | 1008.9 hPa | 0 mm | - | 164 W/m² | - |
| 1788022095 | 34.44° C | 17% | 1009 hPa | 0 mm | - | 180 W/m² | - |
| 1788021800 | 34.44° C | 17% | 1009 hPa | 0 mm | - | 180 W/m² | - |
| 1788021492 | 34.44° C | 17% | 1009 hPa | 0 mm | - | 210 W/m² | - |
| 1788021191 | 34.44° C | 17% | 1009 hPa | 0 mm | - | 210 W/m² | - |
| 1788020891 | 35° C | 17% | 1009.1 hPa | 0 mm | - | 234 W/m² | - |
| 1788020590 | 35° C | 17% | 1009.1 hPa | 0 mm | - | 234 W/m² | - |
| 1788020288 | 34.44° C | 17% | 1009 hPa | 0 mm | - | 260 W/m² | - |
| 1788019987 | 34.44° C | 17% | 1009 hPa | 0 mm | - | 260 W/m² | - |
| 1788019686 | 35° C | 18% | 1009.2 hPa | 0 mm | - | 287 W/m² | - |
| 1788019384 | 35° C | 18% | 1009.2 hPa | 0 mm | - | 287 W/m² | - |
| 1788019084 | 34.44° C | 18% | 1009.7 hPa | 0 mm | - | 301 W/m² | - |
| 1788018782 | 34.44° C | 18% | 1009.7 hPa | 0 mm | - | 301 W/m² | - |
* Rain latest hour (hover to see other rain measurements)
** Current wind speed in m/s (hover to see current wind gust speed)